Pagine meno recenti

Vengono mostrati sotto 500 risultati dal 1 al 500.

Vedi (precedenti 500 | successivi 500) (20 | 50 | 100 | 250 | 500).

  1. 21-40‏‎ (10:38, 9 lug 2016)
  2. Accettare l'invito in una gilda‏‎ (15:37, 25 ago 2016)
  3. Gestione dell'esercito‏‎ (16:15, 25 ago 2016)
  4. Menù dell'Inventario‏‎ (17:57, 26 ago 2016)
  5. Creare una gilda‏‎ (23:29, 26 ago 2016)
  6. Monete‏‎ (23:47, 26 ago 2016)
  7. Medaglie‏‎ (23:49, 26 ago 2016)
  8. Ricompense Contribuzioni‏‎ (15:20, 27 ago 2016)
  9. Pasquale‏‎ (16:53, 27 ago 2016)
  10. Primo Compleanno di Forge of Empires‏‎ (23:25, 27 ago 2016)
  11. Colombo‏‎ (10:39, 28 ago 2016)
  12. Come abbandonare una gilda‏‎ (12:09, 4 set 2016)
  13. Menu classifica‏‎ (12:52, 4 set 2016)
  14. Sicurezza account‏‎ (13:01, 4 set 2016)
  15. Atto finale‏‎ (17:42, 4 set 2016)
  16. Barra di stato (desktop)‏‎ (18:05, 4 set 2016)
  17. Cattedrale di S. Basilio‏‎ (14:11, 5 set 2016)
  18. Classifica delle Gilde‏‎ (15:14, 5 set 2016)
  19. Colpo singolo‏‎ (15:24, 5 set 2016)
  20. Barra sociale‏‎ (20:02, 20 set 2016)
  21. Tipologia unità‏‎ (08:48, 6 ott 2016)
  22. Identità Segreta‏‎ (17:50, 11 ott 2016)
  23. Grepolis‏‎ (22:16, 11 ott 2016)
  24. Morale‏‎ (22:31, 11 ott 2016)
  25. Tribal Wars 2‏‎ (22:37, 11 ott 2016)
  26. The West‏‎ (22:38, 11 ott 2016)
  27. Elvenar‏‎ (22:39, 11 ott 2016)
  28. Incoraggiamento‏‎ (23:05, 11 ott 2016)
  29. Sciame di droni‏‎ (18:08, 12 ott 2016)
  30. Cecchino Antimateria‏‎ (18:09, 12 ott 2016)
  31. Artiglieria missilistica‏‎ (18:10, 12 ott 2016)
  32. Elicottero d'attacco‏‎ (18:11, 12 ott 2016)
  33. Artiglieria lanciarazzi‏‎ (18:11, 12 ott 2016)
  34. Artiglieria Meccanizata‏‎ (18:24, 12 ott 2016)
  35. Carro da battaglia‏‎ (18:30, 12 ott 2016)
  36. Fanteria Meccanizzata‏‎ (18:34, 12 ott 2016)
  37. Carro Armato‏‎ (19:45, 12 ott 2016)
  38. Guardia Imperiale‏‎ (21:26, 12 ott 2016)
  39. Cavaliere corazzato‏‎ (21:29, 12 ott 2016)
  40. Mercenario‏‎ (22:14, 12 ott 2016)
  41. Lancia Macigni‏‎ (22:21, 12 ott 2016)
  42. Classifica‏‎ (22:30, 12 ott 2016)
  43. Top center mobile‏‎ (08:47, 13 ott 2016)
  44. Top left‏‎ (09:10, 13 ott 2016)
  45. Raccogli tutto‏‎ (09:18, 13 ott 2016)
  46. Offerte‏‎ (09:22, 13 ott 2016)
  47. Impostazioni‏‎ (09:25, 13 ott 2016)
  48. Menù principale‏‎ (09:43, 13 ott 2016)
  49. Menù di ricerca‏‎ (09:53, 13 ott 2016)
  50. Top right‏‎ (10:16, 13 ott 2016)
  51. Barra dei Punti Forge‏‎ (10:18, 13 ott 2016)
  52. Tribal Wars‏‎ (18:12, 13 ott 2016)
  53. Testata multipla‏‎ (08:02, 14 ott 2016)
  54. Ricarica‏‎ (08:05, 14 ott 2016)
  55. Tiro potente‏‎ (09:14, 21 ott 2016)
  56. Terreno‏‎ (22:10, 5 nov 2016)
  57. Corpo a corpo‏‎ (09:30, 5 dic 2016)
  58. Tiratore scelto‏‎ (10:40, 20 feb 2017)
  59. Basilica di S. Marco‏‎ (14:26, 23 feb 2017)
  60. Anguilla Idroelettrica‏‎ (13:14, 15 mar 2017)
  61. Scava trincee‏‎ (13:41, 15 mar 2017)
  62. Tecnologie‏‎ (15:28, 15 mar 2017)
  63. Contemporanea‏‎ (10:56, 18 mar 2017)
  64. Domani‏‎ (10:58, 18 mar 2017)
  65. Bronzo‏‎ (12:01, 18 mar 2017)
  66. Livelli 61-75‏‎ (23:44, 4 apr 2017)
  67. Livelli 21-40‏‎ (23:45, 4 apr 2017)
  68. Livelli 41-60‏‎ (23:46, 4 apr 2017)
  69. Livello di Gilda‏‎ (23:46, 4 apr 2017)
  70. Cassa di Potenziamenti‏‎ (17:16, 10 apr 2017)
  71. Cannoni a rotaia‏‎ (11:19, 17 mag 2017)
  72. Menu impostazioni‏‎ (15:10, 26 mag 2017)
  73. Parte destra del mobile‏‎ (15:55, 26 mag 2017)
  74. Veleno‏‎ (17:44, 27 lug 2017)
  75. Industriale‏‎ (22:00, 5 ago 2017)
  76. Statua della fenice‏‎ (22:12, 30 ago 2017)
  77. Alto medioevo‏‎ (10:54, 10 set 2017)
  78. Pieno medioevo‏‎ (10:59, 10 set 2017)
  79. Basso medioevo‏‎ (11:01, 10 set 2017)
  80. Coloniale‏‎ (11:02, 10 set 2017)
  81. Progressista‏‎ (11:06, 10 set 2017)
  82. Moderno‏‎ (11:08, 10 set 2017)
  83. Postmoderno‏‎ (11:10, 10 set 2017)
  84. Futuro‏‎ (11:16, 10 set 2017)
  85. Futuro Artico‏‎ (11:20, 10 set 2017)
  86. Frenesia‏‎ (15:42, 3 dic 2017)
  87. Consiglieri per le missioni‏‎ (22:02, 3 dic 2017)
  88. Diamanti‏‎ (22:07, 3 dic 2017)
  89. Felicità‏‎ (22:13, 3 dic 2017)
  90. Municipio - schermata‏‎ (20:44, 4 dic 2017)
  91. Marilyn Monroe‏‎ (22:03, 5 dic 2017)
  92. Top right mobile‏‎ (12:47, 9 dic 2017)
  93. Top left Mobile‏‎ (12:50, 9 dic 2017)
  94. Mondi di gioco‏‎ (12:56, 9 dic 2017)
  95. Messaggistica e Chat‏‎ (13:03, 9 dic 2017)
  96. Punti Forge‏‎ (13:11, 9 dic 2017)
  97. Classifica medaglie‏‎ (13:44, 9 dic 2017)
  98. Arthur Conan Doyle‏‎ (20:18, 10 dic 2017)
  99. La visita di Leonardo‏‎ (20:23, 10 dic 2017)
  100. Il Racconto dell'Eroe‏‎ (21:27, 10 dic 2017)
  101. Incidenti‏‎ (21:47, 10 dic 2017)
  102. Guerriero coraggioso‏‎ (21:52, 10 dic 2017)
  103. Barbaro Fromboliere‏‎ (21:52, 10 dic 2017)
  104. Cavaliere coraggioso‏‎ (21:52, 10 dic 2017)
  105. Basi‏‎ (23:45, 11 dic 2017)
  106. Inventario‏‎ (23:52, 11 dic 2017)
  107. Esercito e battaglie‏‎ (22:47, 12 dic 2017)
  108. Interazioni Sociali‏‎ (22:48, 12 dic 2017)
  109. Spedizioni di Gilda‏‎ (22:52, 12 dic 2017)
  110. Gilda vs Gilda‏‎ (00:22, 13 dic 2017)
  111. Committenti‏‎ (00:27, 13 dic 2017)
  112. Materiali‏‎ (00:33, 13 dic 2017)
  113. Taverna degli amici‏‎ (18:58, 13 dic 2017)
  114. San Valentino‏‎ (19:01, 13 dic 2017)
  115. Evento Pasquale‏‎ (19:03, 13 dic 2017)
  116. Giorno di Maggio‏‎ (19:04, 13 dic 2017)
  117. Cavalleria pesante‏‎ (19:21, 13 dic 2017)
  118. 5° Anniversario di Forge of Empires‏‎ (19:33, 13 dic 2017)
  119. Martin Luther King‏‎ (19:34, 13 dic 2017)
  120. Anno Bisestile‏‎ (19:35, 13 dic 2017)
  121. Yuri Gagarin‏‎ (19:37, 13 dic 2017)
  122. Isadora Duncan‏‎ (19:37, 13 dic 2017)
  123. Maria Stuarda‏‎ (19:39, 13 dic 2017)
  124. Sissi‏‎ (19:39, 13 dic 2017)
  125. Fratelli Montgolfier‏‎ (19:40, 13 dic 2017)
  126. Tour de France‏‎ (19:40, 13 dic 2017)
  127. Albert Einstein‏‎ (19:42, 13 dic 2017)
  128. Shah Jahan‏‎ (19:43, 13 dic 2017)
  129. Galileo Galilei‏‎ (19:46, 13 dic 2017)
  130. Mahatma Gandhi‏‎ (19:47, 13 dic 2017)
  131. Rosa Parks‏‎ (19:48, 13 dic 2017)
  132. Gilde‏‎ (19:58, 14 dic 2017)
  133. Amministrazione Gilda‏‎ (19:59, 14 dic 2017)
  134. Permessi di gilda‏‎ (20:00, 14 dic 2017)
  135. Popolazione‏‎ (20:02, 14 dic 2017)
  136. Campionati delle Gilde‏‎ (20:04, 14 dic 2017)
  137. Glossario‏‎ (20:07, 14 dic 2017)
  138. Regolamento‏‎ (20:13, 14 dic 2017)
  139. Sicurezza‏‎ (20:14, 14 dic 2017)
  140. Beni Speciali‏‎ (20:17, 14 dic 2017)
  141. Promezio‏‎ (20:19, 14 dic 2017)
  142. FAQ‏‎ (20:22, 14 dic 2017)
  143. Basilica di S. Sofia‏‎ (21:05, 8 gen 2018)
  144. Oracolo di Delfi‏‎ (21:17, 8 gen 2018)
  145. Stormo‏‎ (21:24, 26 feb 2018)
  146. Sciame‏‎ (21:37, 26 feb 2018)
  147. Aliante‏‎ (21:38, 26 feb 2018)
  148. Futuro Oceanico‏‎ (20:58, 27 feb 2018)
  149. Abilità speciali‏‎ (21:03, 27 feb 2018)
  150. Esplosione‏‎ (21:04, 27 feb 2018)
  151. Fiato del Drago‏‎ (21:04, 27 feb 2018)
  152. Volare‏‎ (21:06, 27 feb 2018)
  153. Oricalco‏‎ (21:12, 27 feb 2018)
  154. La Galassia Blu‏‎ (21:58, 4 mar 2018)
  155. Napoleone Bonaparte‏‎ (20:37, 5 mar 2018)
  156. Mobile App‏‎ (21:17, 19 apr 2018)
  157. Applicazione Mobile‏‎ (21:18, 19 apr 2018)
  158. Cleopatra‏‎ (21:41, 19 apr 2018)
  159. Van Gogh‏‎ (20:19, 3 mag 2018)
  160. Sacajawea‏‎ (19:31, 19 mag 2018)
  161. Carro armato a levitazione‏‎ (19:09, 12 lug 2018)
  162. Chiamata al Dovere‏‎ (21:51, 17 lug 2018)
  163. Cavalleria‏‎ (21:53, 17 lug 2018)
  164. Contatto!‏‎ (21:55, 17 lug 2018)
  165. Campo di forza‏‎ (21:56, 17 lug 2018)
  166. Schieramento rapido‏‎ (21:57, 17 lug 2018)
  167. Armatura reattiva‏‎ (21:58, 17 lug 2018)
  168. Nascosto‏‎ (21:59, 17 lug 2018)
  169. Tornei PvP‏‎ (23:05, 17 lug 2018)
  170. Industriale - Età Contemporanea‏‎ (23:06, 17 lug 2018)
  171. Bronzo - Età Coloniale‏‎ (23:06, 17 lug 2018)
  172. Beni‏‎ (16:13, 19 lug 2018)
  173. Cimitero Antico‏‎ (19:17, 24 lug 2018)
  174. Palo di Maggio‏‎ (19:20, 24 lug 2018)
  175. Possente Palo di Maggio‏‎ (19:23, 24 lug 2018)
  176. Imponente Palo di Maggio‏‎ (19:25, 24 lug 2018)
  177. Fontana dell'Elefante‏‎ (19:36, 24 lug 2018)
  178. Pozzo dell'Accoglienza‏‎ (19:43, 24 lug 2018)
  179. Statua in Maschera‏‎ (10:47, 25 lug 2018)
  180. Statua in maschera da naso‏‎ (10:48, 25 lug 2018)
  181. Slitta con Renne‏‎ (10:51, 25 lug 2018)
  182. Statua d'ingresso Est/Ovest‏‎ (10:55, 25 lug 2018)
  183. Coppa del capocannoniere‏‎ (11:01, 25 lug 2018)
  184. Uomo Vitruviano‏‎ (11:06, 25 lug 2018)
  185. Cancello del Dio Sole‏‎ (11:10, 25 lug 2018)
  186. Premio d'Oro‏‎ (15:57, 25 lug 2018)
  187. Premio d'Argento‏‎ (15:58, 25 lug 2018)
  188. Premio di Bronzo‏‎ (15:59, 25 lug 2018)
  189. Premio di Pietra‏‎ (16:00, 25 lug 2018)
  190. Stagno Nishikigoi‏‎ (16:06, 25 lug 2018)
  191. Roccia di Sakura‏‎ (16:07, 25 lug 2018)
  192. Baobab Decorato‏‎ (16:14, 25 lug 2018)
  193. Parco Giochi del Bandar‏‎ (16:18, 25 lug 2018)
  194. Aro Titano‏‎ (16:20, 25 lug 2018)
  195. Giardino Chhatri‏‎ (16:22, 25 lug 2018)
  196. Albero dell'Amore‏‎ (16:24, 25 lug 2018)
  197. Grande Albero dell'Amore‏‎ (16:25, 25 lug 2018)
  198. Eterno Albero dell'amore‏‎ (16:27, 25 lug 2018)
  199. Ritiro del Campione‏‎ (16:41, 25 lug 2018)
  200. Ballo in Maschera‏‎ (10:53, 26 lug 2018)
  201. Mercato del Pontile della Gondola‏‎ (10:57, 26 lug 2018)
  202. Grande Fabbrica di dolciumi‏‎ (11:05, 26 lug 2018)
  203. Recinto delle renne‏‎ (11:06, 26 lug 2018)
  204. Enorme Fabbrica di dolciumi‏‎ (11:07, 26 lug 2018)
  205. Negozio Foeberge‏‎ (11:11, 26 lug 2018)
  206. Fattoria Terrazzata‏‎ (11:12, 26 lug 2018)
  207. Angolo dell'oratore‏‎ (18:45, 26 lug 2018)
  208. Villa Rinascimentale‏‎ (18:50, 26 lug 2018)
  209. Magione Rinascimentale‏‎ (18:51, 26 lug 2018)
  210. Casetta di Pan di Zenzero‏‎ (19:14, 26 lug 2018)
  211. Giardino dell'Obelisco‏‎ (19:15, 26 lug 2018)
  212. Santuario dell'Ispirazione‏‎ (19:18, 26 lug 2018)
  213. Santuario della Conoscenza‏‎ (19:19, 26 lug 2018)
  214. Piazza degli Scacchi‏‎ (19:22, 26 lug 2018)
  215. Guardia del Cielo Sacra‏‎ (19:24, 26 lug 2018)
  216. Casa stregata‏‎ (19:29, 26 lug 2018)
  217. Pilastro degli Eroi lvl 1‏‎ (19:39, 26 lug 2018)
  218. Pilastro degli Eroi lvl 2‏‎ (19:41, 26 lug 2018)
  219. Pilastro degli Eroi lvl 3‏‎ (19:42, 26 lug 2018)
  220. Pilastro degli Eroi lvl 4‏‎ (19:43, 26 lug 2018)
  221. Pilastro degli Eroi lvl 5‏‎ (19:44, 26 lug 2018)
  222. Pilastro degli Eroi lvl 6‏‎ (19:45, 26 lug 2018)
  223. Pilastro degli Eroi lvl 7‏‎ (19:46, 26 lug 2018)
  224. Tholos degli idoli‏‎ (18:31, 27 lug 2018)
  225. Pagoda ad un Piano‏‎ (18:32, 27 lug 2018)
  226. Zona Zen‏‎ (18:37, 27 lug 2018)
  227. Ingresso dell'Imperatore‏‎ (18:38, 27 lug 2018)
  228. Torre Orientale del Palazzo‏‎ (18:54, 27 lug 2018)
  229. Torre Occidentale del Palazzo‏‎ (18:55, 27 lug 2018)
  230. Chhatri Commemorativo‏‎ (18:56, 27 lug 2018)
  231. Ingresso della Fontana dell'Elefante‏‎ (18:58, 27 lug 2018)
  232. Tana delle tigri‏‎ (19:03, 27 lug 2018)
  233. Campo delle Guardie con Vessillo‏‎ (19:06, 27 lug 2018)
  234. Fontana della Giovinezza‏‎ (19:11, 27 lug 2018)
  235. Gong della Saggezza‏‎ (19:13, 27 lug 2018)
  236. Labirinto di Siepi‏‎ (19:23, 27 lug 2018)
  237. Fiamma Rituale‏‎ (19:25, 27 lug 2018)
  238. Pozzo dei Desideri‏‎ (19:34, 27 lug 2018)
  239. Evento Estivo 2013 - 2017‏‎ (19:59, 29 lug 2018)
  240. Evento Estivo‏‎ (13:46, 8 ago 2018)
  241. La Nave‏‎ (13:57, 8 ago 2018)
  242. Sfide Giornaliere‏‎ (19:14, 16 ago 2018)
  243. Warlords of Aternum‏‎ (19:40, 26 ago 2018)
  244. Modalità Ricostruzione (Mobile)‏‎ (21:31, 31 ago 2018)
  245. Parte sinistra del mobile‏‎ (21:42, 31 ago 2018)
  246. Menù di costruzione‏‎ (21:46, 31 ago 2018)
  247. Modalità Ricostruzione‏‎ (12:05, 1 set 2018)
  248. Consumabili‏‎ (16:21, 6 set 2018)
  249. Mulino d'autunno‏‎ (20:16, 9 set 2018)
  250. Mulino d'autunno - Lv. 1‏‎ (20:24, 9 set 2018)
  251. Mulino d'autunno - Lv. 2‏‎ (20:45, 9 set 2018)
  252. Mulino d'autunno - Lv. 3‏‎ (20:49, 9 set 2018)
  253. Mulino d'autunno - Lv. 4‏‎ (20:53, 9 set 2018)
  254. Mulino d'autunno - Lv. 5‏‎ (20:58, 9 set 2018)
  255. Mulino d'autunno - Lv. 6‏‎ (21:02, 9 set 2018)
  256. Tana dei Furfanti‏‎ (21:36, 9 set 2018)
  257. Fabbrica di succo in Fiore‏‎ (21:43, 9 set 2018)
  258. Fabbrica di succo Fruttuosa‏‎ (21:44, 9 set 2018)
  259. Fabbrica di succo Produttiva‏‎ (21:44, 9 set 2018)
  260. Evento autunnale 2017‏‎ (19:59, 10 set 2018)
  261. Evento autunnale‏‎ (18:41, 12 set 2018)
  262. Tamburino‏‎ (18:44, 12 set 2018)
  263. Scorciatoie da tastiera‏‎ (12:09, 29 set 2018)
  264. Rotonda Botanica‏‎ (20:34, 4 ott 2018)
  265. Genghis Khan‏‎ (20:45, 4 ott 2018)
  266. Missioni Storiche‏‎ (20:23, 5 ott 2018)
  267. Frammenti‏‎ (21:37, 18 ott 2018)
  268. Evento di Halloween 2017‏‎ (20:33, 19 ott 2018)
  269. Evento di Halloween‏‎ (12:46, 20 ott 2018)
  270. Fabbrica di dolciumi‏‎ (17:57, 24 ott 2018)
  271. Torre della vittoria‏‎ (13:00, 5 nov 2018)
  272. Set Palazzo Indiano‏‎ (22:24, 8 nov 2018)
  273. Set Fontana Indiana‏‎ (22:36, 8 nov 2018)
  274. Set Villaggio d'Inverno‏‎ (23:38, 8 nov 2018)
  275. Set Giardino Reale‏‎ (23:45, 8 nov 2018)
  276. Mortaio‏‎ (19:57, 11 nov 2018)
  277. Special Building List‏‎ (14:38, 29 nov 2018)
  278. Great Building List‏‎ (14:39, 29 nov 2018)
  279. Evento Invernale (2017)‏‎ (22:04, 30 nov 2018)
  280. Evento Invernale‏‎ (22:09, 30 nov 2018)
  281. Insediamenti Culturali‏‎ (21:02, 26 dic 2018)
  282. Emissari‏‎ (21:06, 26 dic 2018)
  283. Insediamento Culturale Vichingo‏‎ (21:01, 28 dic 2018)
  284. Panoramica degli Insediamenti Culturali‏‎ (21:04, 28 dic 2018)
  285. Ferro‏‎ (21:11, 28 dic 2018)
  286. Eventi e missioni storiche‏‎ (21:13, 28 dic 2018)
  287. Giardino classico‏‎ (19:07, 13 gen 2019)
  288. Pagina test‏‎ (18:45, 14 gen 2019)
  289. Forge Bowl 2018‏‎ (18:50, 14 gen 2019)
  290. Forge Bowl‏‎ (18:50, 14 gen 2019)
  291. Emissari Vichinghi‏‎ (13:22, 3 feb 2019)
  292. Pagoda a un piano‏‎ (14:51, 6 feb 2019)
  293. Edifici Residenziali‏‎ (12:32, 10 feb 2019)
  294. Edifici Produttivi‏‎ (12:34, 10 feb 2019)
  295. Edifici culturali‏‎ (12:35, 10 feb 2019)
  296. Edifici Militari‏‎ (12:39, 10 feb 2019)
  297. Futuro Virtuale‏‎ (13:02, 10 feb 2019)
  298. Unità‏‎ (13:10, 10 feb 2019)
  299. Calore‏‎ (13:18, 10 feb 2019)
  300. Carnevale 2018‏‎ (22:59, 17 feb 2019)
  301. Evento di Carnevale‏‎ (23:00, 17 feb 2019)
  302. Set di Edifici‏‎ (23:04, 17 feb 2019)
  303. Lista Edifici speciali‏‎ (08:47, 21 feb 2019)
  304. Lista Grandi Edifici‏‎ (08:47, 21 feb 2019)
  305. Età del bronzo Unità‏‎ (08:48, 21 feb 2019)
  306. Età del ferro Unità‏‎ (08:48, 21 feb 2019)
  307. Alto Medioevo Unità‏‎ (08:48, 21 feb 2019)
  308. Pieno Medioevo Unità‏‎ (08:48, 21 feb 2019)
  309. Età Coloniale Unità‏‎ (08:48, 21 feb 2019)
  310. Basso Medioevo Unità‏‎ (08:48, 21 feb 2019)
  311. Età Industriale Unità‏‎ (08:48, 21 feb 2019)
  312. Età Moderna Unità‏‎ (08:48, 21 feb 2019)
  313. Età Progressista Unità‏‎ (08:48, 21 feb 2019)
  314. Età Postmoderna Unità‏‎ (08:48, 21 feb 2019)
  315. Età del Domani Unità‏‎ (08:48, 21 feb 2019)
  316. Età Contemporanea Unità‏‎ (08:48, 21 feb 2019)
  317. Età del Futuro Unità‏‎ (08:48, 21 feb 2019)
  318. Futuro Artico Unità‏‎ (08:48, 21 feb 2019)
  319. Futuro oceanico Unità‏‎ (08:48, 21 feb 2019)
  320. Futuro Virtuale Unità‏‎ (08:48, 21 feb 2019)
  321. Di nessun periodo Unità‏‎ (08:48, 21 feb 2019)
  322. Grandi Edifici‏‎ (20:25, 26 feb 2019)
  323. Edifici‏‎ (17:49, 1 mar 2019)
  324. Set Piazza‏‎ (12:11, 5 mar 2019)
  325. Set Giardino di Ciliegi‏‎ (18:14, 24 mar 2019)
  326. Evento di Primavera 2018‏‎ (18:16, 24 mar 2019)
  327. Eventi Stagionali‏‎ (18:18, 24 mar 2019)
  328. Uomo di mondo‏‎ (14:13, 27 mar 2019)
  329. Furfante‏‎ (14:13, 27 mar 2019)
  330. Tiratori scelti‏‎ (14:13, 27 mar 2019)
  331. Guerriero Coraggioso‏‎ (14:13, 27 mar 2019)
  332. Cavaliere Coraggioso‏‎ (14:13, 27 mar 2019)
  333. Barbaro‏‎ (14:13, 27 mar 2019)
  334. Fromboliere Barbaro‏‎ (14:13, 27 mar 2019)
  335. Campione (Età del ferro)‏‎ (14:13, 27 mar 2019)
  336. Campione (Età del bronzo)‏‎ (14:13, 27 mar 2019)
  337. Campione (Pieno Medioevo)‏‎ (14:13, 27 mar 2019)
  338. Campione (Alto Medioevo)‏‎ (14:13, 27 mar 2019)
  339. Campione (Età Coloniale)‏‎ (14:13, 27 mar 2019)
  340. Campione (Basso Medioevo)‏‎ (14:13, 27 mar 2019)
  341. Campione (Età Progressista)‏‎ (14:13, 27 mar 2019)
  342. Campione (Età Industriale)‏‎ (14:13, 27 mar 2019)
  343. Campione (Età Moderna)‏‎ (14:13, 27 mar 2019)
  344. Campione (Età Contemporanea)‏‎ (14:13, 27 mar 2019)
  345. Campione (Età Postmoderna)‏‎ (14:13, 27 mar 2019)
  346. Campione (Età del Domani)‏‎ (14:13, 27 mar 2019)
  347. Guardia con vessillo‏‎ (14:13, 27 mar 2019)
  348. Tamburino militare‏‎ (14:13, 27 mar 2019)
  349. Campione (Età del Futuro)‏‎ (14:13, 27 mar 2019)
  350. Campione (Futuro Artico)‏‎ (14:13, 27 mar 2019)
  351. Campione (Futuro oceanico)‏‎ (14:14, 27 mar 2019)
  352. Campione (Futuro Virtuale)‏‎ (14:14, 27 mar 2019)
  353. Evento di Primavera‏‎ (16:07, 31 mar 2019)
  354. Evento Archeologia‏‎ (10:46, 2 mag 2019)
  355. Eventi e missioni‏‎ (10:51, 2 mag 2019)
  356. L'Universo‏‎ (10:52, 2 mag 2019)
  357. Interfaccia‏‎ (10:53, 2 mag 2019)
  358. Carosello‏‎ (13:36, 28 mag 2019)
  359. Sito di lancio mongolfiere‏‎ (13:36, 28 mag 2019)
  360. Liv. 1 - Torre dell'orologio della Piazza‏‎ (13:36, 28 mag 2019)
  361. Liv. 2 - Torre dell'orologio della Piazza‏‎ (13:36, 28 mag 2019)
  362. Mercato d'Inverno‏‎ (13:36, 28 mag 2019)
  363. Piramide d'Inverno‏‎ (13:36, 28 mag 2019)
  364. Tribuna‏‎ (13:36, 28 mag 2019)
  365. Porta d'Inverno‏‎ (13:36, 28 mag 2019)
  366. Cimitero leggendario‏‎ (13:36, 28 mag 2019)
  367. Padiglione‏‎ (13:36, 28 mag 2019)
  368. Stagno d'autunno‏‎ (13:36, 28 mag 2019)
  369. Cimitero‏‎ (13:36, 28 mag 2019)
  370. Cimitero monumentale‏‎ (13:36, 28 mag 2019)
  371. Torre stregata‏‎ (13:36, 28 mag 2019)
  372. Necropoli‏‎ (13:36, 28 mag 2019)
  373. Vecchio Cimitero‏‎ (13:36, 28 mag 2019)
  374. Antico Cimitero‏‎ (13:36, 28 mag 2019)
  375. Rotonda botanica‏‎ (13:36, 28 mag 2019)
  376. Palo di maggio‏‎ (13:36, 28 mag 2019)
  377. Bagni pubblici decorati‏‎ (13:36, 28 mag 2019)
  378. Piazza dei Vincitori‏‎ (13:36, 28 mag 2019)
  379. Imponente Palo di maggio‏‎ (13:36, 28 mag 2019)
  380. Possente Palo di maggio‏‎ (13:36, 28 mag 2019)
  381. Castello di sabbia‏‎ (13:36, 28 mag 2019)
  382. Fontana Giardino classico‏‎ (13:36, 28 mag 2019)
  383. Fontana dell'elefante‏‎ (13:36, 28 mag 2019)
  384. Canale di Venezia‏‎ (13:36, 28 mag 2019)
  385. Trofeo Premio‏‎ (13:36, 28 mag 2019)
  386. Pozzo dell'accoglienza‏‎ (13:36, 28 mag 2019)
  387. Statua in maschera‏‎ (13:36, 28 mag 2019)
  388. Schiaccianoci‏‎ (13:36, 28 mag 2019)
  389. Liv. 1 - Fontana della Piazza‏‎ (13:36, 28 mag 2019)
  390. Liv. 2 - Fontana della Piazza‏‎ (13:36, 28 mag 2019)
  391. Statua in maschera da Zanni‏‎ (13:36, 28 mag 2019)
  392. Albero delle Festività‏‎ (13:36, 28 mag 2019)
  393. Torre di regali‏‎ (13:36, 28 mag 2019)
  394. Slitta con renne‏‎ (13:36, 28 mag 2019)
  395. Statua Ingresso Ovest‏‎ (13:36, 28 mag 2019)
  396. Coppa del vicinato‏‎ (13:36, 28 mag 2019)
  397. Coppa FoE‏‎ (13:36, 28 mag 2019)
  398. Statua Ingresso Est‏‎ (13:36, 28 mag 2019)
  399. Spalti‏‎ (13:36, 28 mag 2019)
  400. Uomo vitruviano‏‎ (13:36, 28 mag 2019)
  401. Alberello di glicine‏‎ (13:36, 28 mag 2019)
  402. Volto dell'Antico‏‎ (13:36, 28 mag 2019)
  403. Cancello del dio del sole‏‎ (13:36, 28 mag 2019)
  404. Cappella di Jack O'Lantern‏‎ (13:36, 28 mag 2019)
  405. Spaventapasseri‏‎ (13:36, 28 mag 2019)
  406. Statua di Phoenix‏‎ (13:36, 28 mag 2019)
  407. Memento‏‎ (13:36, 28 mag 2019)
  408. Mobilito‏‎ (13:36, 28 mag 2019)
  409. Pozzo‏‎ (13:36, 28 mag 2019)
  410. Premio d'argento‏‎ (13:36, 28 mag 2019)
  411. Premio d'oro‏‎ (13:36, 28 mag 2019)
  412. Premio di pietra‏‎ (13:36, 28 mag 2019)
  413. Premio di bronzo‏‎ (13:36, 28 mag 2019)
  414. Rovine del Giardino‏‎ (13:36, 28 mag 2019)
  415. Excalibur‏‎ (13:36, 28 mag 2019)
  416. Trofeo Forge Bowl‏‎ (13:36, 28 mag 2019)
  417. Statue Giardino classico‏‎ (13:36, 28 mag 2019)
  418. Lv. 1 - Roccia di sakura‏‎ (13:36, 28 mag 2019)
  419. Lv. 1 - Stagno Nishikigoi‏‎ (13:36, 28 mag 2019)
  420. Lv. 2 - Stagno Nishikigoi‏‎ (13:36, 28 mag 2019)
  421. Palma‏‎ (13:36, 28 mag 2019)
  422. Sfinge‏‎ (13:36, 28 mag 2019)
  423. Lv. 2 - Roccia di sakura‏‎ (13:36, 28 mag 2019)
  424. Amaca‏‎ (13:36, 28 mag 2019)
  425. Totem Tiki‏‎ (13:36, 28 mag 2019)
  426. Stagno del Maharaja‏‎ (13:36, 28 mag 2019)
  427. Baobab decorato‏‎ (13:36, 28 mag 2019)
  428. Meridiana‏‎ (13:36, 28 mag 2019)
  429. Giardino del Chhatri‏‎ (13:36, 28 mag 2019)
  430. Parco giochi del Bandar‏‎ (13:36, 28 mag 2019)
  431. Albero dell'amore‏‎ (13:36, 28 mag 2019)
  432. Aro titano‏‎ (13:36, 28 mag 2019)
  433. Grande albero dell'amore‏‎ (13:36, 28 mag 2019)
  434. Halmbock‏‎ (13:36, 28 mag 2019)
  435. Eterno albero dell'amore‏‎ (13:36, 28 mag 2019)
  436. Tenda del riparatore‏‎ (13:36, 28 mag 2019)
  437. Banchetto di Smörgåsbord‏‎ (13:36, 28 mag 2019)
  438. Tenda del fabbricante di candele‏‎ (13:36, 28 mag 2019)
  439. Liv. 1 - Venditore di maschere della Piazza‏‎ (13:37, 28 mag 2019)
  440. Torre della vittoria - Lv. 2‏‎ (13:37, 28 mag 2019)
  441. Liv. 2 - Venditore di maschere della Piazza‏‎ (13:37, 28 mag 2019)
  442. Torre della vittoria - Lv. 1‏‎ (13:37, 28 mag 2019)
  443. Labirinto di siepi‏‎ (13:37, 28 mag 2019)
  444. Fontana della giovinezza‏‎ (13:37, 28 mag 2019)
  445. Pozzo dei desideri piccolo‏‎ (13:37, 28 mag 2019)
  446. Pozzo dei desideri‏‎ (13:37, 28 mag 2019)
  447. Lv. 1 - Gong della saggezza‏‎ (13:37, 28 mag 2019)
  448. Tenda di Madame Fortuna‏‎ (13:37, 28 mag 2019)
  449. Lv. 2 - Gong della saggezza‏‎ (13:37, 28 mag 2019)
  450. Tenda Stella di paglia‏‎ (13:37, 28 mag 2019)
  451. Campo delle guardie con vessillo‏‎ (13:37, 28 mag 2019)
  452. Covo dei Furfanti‏‎ (13:37, 28 mag 2019)
  453. Tana dei furfanti‏‎ (13:37, 28 mag 2019)
  454. Scuola per tamburini‏‎ (13:37, 28 mag 2019)
  455. Il Ritiro del Campione‏‎ (13:38, 28 mag 2019)
  456. Voliera‏‎ (13:38, 28 mag 2019)
  457. Mercato del pontile della gondola‏‎ (13:38, 28 mag 2019)
  458. Fabbrica di Dolciumi‏‎ (13:38, 28 mag 2019)
  459. Ballo in maschera‏‎ (13:38, 28 mag 2019)
  460. Grande Fabbrica di Dolciumi‏‎ (13:38, 28 mag 2019)
  461. Fabbrica di dolciumi leggendaria‏‎ (13:38, 28 mag 2019)
  462. Bottega di Babbo Natale‏‎ (13:38, 28 mag 2019)
  463. Recinto delle Renne‏‎ (13:38, 28 mag 2019)
  464. Negozio del tifoso‏‎ (13:38, 28 mag 2019)
  465. Enorme fabbrica di dolciumi‏‎ (13:38, 28 mag 2019)
  466. Negozio Foebergé‏‎ (13:38, 28 mag 2019)
  467. Campo di calcio‏‎ (13:38, 28 mag 2019)
  468. Fattoria terrazzata‏‎ (13:38, 28 mag 2019)
  469. Fabbrica di succo‏‎ (13:38, 28 mag 2019)
  470. Fabbrica di succo fruttuosa‏‎ (13:38, 28 mag 2019)
  471. Fabbrica di succo in fiore‏‎ (13:38, 28 mag 2019)
  472. Fabbrica di succo prospera‏‎ (13:38, 28 mag 2019)
  473. Roseto‏‎ (13:38, 28 mag 2019)
  474. Laboratorio dello scienziato pazzo‏‎ (13:38, 28 mag 2019)
  475. Fabbrica di succo produttiva‏‎ (13:38, 28 mag 2019)
  476. Arena dei Vincitori‏‎ (13:38, 28 mag 2019)
  477. Bazar‏‎ (13:38, 28 mag 2019)
  478. Bar sulla spiaggia‏‎ (13:38, 28 mag 2019)
  479. Stregone‏‎ (13:38, 28 mag 2019)
  480. Tesoro sommerso‏‎ (13:38, 28 mag 2019)
  481. Luau‏‎ (13:38, 28 mag 2019)
  482. Costruttore di slitte‏‎ (13:38, 28 mag 2019)
  483. Capolavoro‏‎ (13:38, 28 mag 2019)
  484. Angolo degli Oratori‏‎ (13:39, 28 mag 2019)
  485. Esposizione universale - Lv. 2‏‎ (13:39, 28 mag 2019)
  486. Esposizione universale - Lv. 1‏‎ (13:39, 28 mag 2019)
  487. Esposizione universale - Lv. 3‏‎ (13:39, 28 mag 2019)
  488. Esposizione universale - Lv. 6‏‎ (13:39, 28 mag 2019)
  489. Esposizione universale - Lv. 4‏‎ (13:39, 28 mag 2019)
  490. Esposizione universale - Lv. 5‏‎ (13:39, 28 mag 2019)
  491. Esposizione universale - Lv. 7‏‎ (13:39, 28 mag 2019)
  492. Esposizione universale - Lv. 8‏‎ (13:39, 28 mag 2019)
  493. Esposizione universale - Lv. 10‏‎ (13:39, 28 mag 2019)
  494. Il Re‏‎ (13:39, 28 mag 2019)
  495. La Regina‏‎ (13:39, 28 mag 2019)
  496. Esposizione universale - Lv. 9‏‎ (13:39, 28 mag 2019)
  497. Gran Ponte - Lv. 1‏‎ (13:39, 28 mag 2019)
  498. Villa rinascimentale‏‎ (13:39, 28 mag 2019)
  499. Magione rinascimentale‏‎ (13:39, 28 mag 2019)
  500. Gran Ponte - Lv. 2‏‎ (13:39, 28 mag 2019)

Vedi (precedenti 500 | successivi 500) (20 | 50 | 100 | 250 | 500).